Lebanon, NH

6:36 AM EDT on October 21, 2019 (GMT -0400)
Lebanon Municipal

Weather History for KLEB - September, 2019

Change the Weather History Date:

Monday, September 16, 2019

  Actual Average Record
Temperature  
Mean Temperature 60 °F -  
Max Temperature 71 °F 71 °F 94 °F (1939)
Min Temperature 45 °F 48 °F 30 °F (1948)
Degree Days  
Heating Degree Days 6    
Growing Degree Days 10 (Base 50)    
Moisture  
Dew Point 44 °F    
Average Humidity 64    
Maximum Humidity 86    
Minimum Humidity 32    
Precipitation  
Precipitation 0.00 in - - ()
Sea Level Pressure  
Sea Level Pressure 30.06 in    
Wind  
Wind Speed 4 mph (NNW)    
Max Wind Speed 13 mph    
Max Gust Speed 18 mph    
Visibility 10 miles    
Events      
Averages and records for this station are not official NWS values.
T = Trace of Precipitation, MM = Missing Value Source: NWS Daily Summary

Daily Weather History Graph

Daily Weather History Graph

Search for Another Location

Airport or City:

Astronomy

Sep. 16, 2019 Rise Set
Actual Time 6:29 AM EDT 6:58 PM EDT
Civil Twilight 6:00 AM EDT 7:26 PM EDT
Nautical Twilight 5:26 AM EDT 8:00 PM EDT
Astronomical Twilight 4:51 AM EDT 8:35 PM EDT
Moon 8:27 PM EDT (9/16) 8:36 AM EDT (9/16)
Length of Visible Light 13h 26m
Length of Day
12h 28m
Waning Gibbous, 94% of the Moon is Illuminated
Sep 16
Waning Gibbous
Sep 21
Last Quarter
Sep 28
New
Oct 5
First Quarter
Oct 13
Full

Hourly Weather History & Observations

Time (EDT) Temp. Dew Point Humidity Pressure Visibility Wind Dir Wind Speed Gust Speed Precip Events Conditions
12:53 AM 61.0 °F 51.1 °F 70% 30.04 in 10.0 mi Calm Calm - N/A   Overcast
1:43 AM 61.0 °F 48.0 °F 62% 30.08 in 10.0 mi North 5.8 mph - N/A   Overcast
1:53 AM 60.1 °F 46.0 °F 60% 30.05 in 10.0 mi NNE 9.2 mph - N/A   Overcast
2:02 AM 60.1 °F 45.0 °F 57% 30.07 in 10.0 mi North 9.2 mph - N/A   Mostly Cloudy
2:53 AM 52.0 °F 45.0 °F 77% 30.06 in 10.0 mi Calm Calm - N/A   Clear
3:53 AM 48.9 °F 44.1 °F 83% 30.06 in 10.0 mi Calm Calm - N/A   Clear
4:53 AM 48.0 °F 42.1 °F 80% 30.06 in 10.0 mi Calm Calm - N/A   Clear
5:53 AM 48.0 °F 44.1 °F 86% 30.08 in 10.0 mi Calm Calm - N/A   Clear
6:53 AM 50.0 °F 45.0 °F 83% 30.09 in 10.0 mi NE 4.6 mph - N/A   Clear
7:53 AM 53.1 °F 46.9 °F 80% 30.09 in 10.0 mi Calm Calm - N/A   Clear
8:53 AM 57.9 °F 45.0 °F 62% 30.09 in 10.0 mi WNW 6.9 mph - N/A   Clear
9:53 AM 61.0 °F 45.0 °F 56% 30.09 in 10.0 mi WNW 10.4 mph - N/A   Clear
10:53 AM 62.1 °F 44.1 °F 52% 30.08 in 10.0 mi NW 8.1 mph - N/A   Overcast
12:53 PM 66.0 °F 44.1 °F 45% 30.04 in 10.0 mi NNW 9.2 mph - N/A   Overcast
1:53 PM 68.0 °F 44.1 °F 42% 30.03 in 10.0 mi NW 12.7 mph 17.3 mph N/A   Overcast
2:53 PM 70.0 °F 43.0 °F 38% 30.02 in 10.0 mi NW 11.5 mph 18.4 mph N/A   Scattered Clouds
3:53 PM 71.1 °F 39.9 °F 32% 30.01 in 10.0 mi North 8.1 mph - N/A   Clear
4:53 PM 70.0 °F 41.0 °F 35% 30.01 in 10.0 mi North 8.1 mph 16.1 mph N/A   Clear
5:53 PM 68.0 °F 42.1 °F 39% 30.03 in 10.0 mi NNW 6.9 mph - N/A   Clear
6:53 PM 63.0 °F 42.1 °F 46% 30.05 in 10.0 mi North 4.6 mph - N/A   Clear
7:53 PM 52.0 °F 44.1 °F 74% 30.06 in 10.0 mi Calm Calm - N/A   Clear
8:53 PM 50.0 °F 44.1 °F 80% 30.07 in 10.0 mi South 3.5 mph - N/A   Clear
9:53 PM 48.0 °F 43.0 °F 83% 30.08 in 10.0 mi Calm Calm - N/A   Clear
10:53 PM 48.0 °F 42.1 °F 80% 30.09 in 10.0 mi Calm Calm - N/A   Clear
11:53 PM 45.0 °F 41.0 °F 86% 30.09 in 10.0 mi Calm Calm - N/A   Clear